[[{"header":{"parameterUnit":"m.s-1","parameterCategory":1,"la1":30.2991,"la2":30.254,"lo1":-89.0895,"lo2":-89.0444,"dy":0.0017,"dx":0.0017,"nx":28,"ny":28,"refTime":"2023-08-27T21:00:00:Z","depth":0,"parameterNumber":2,"parameterNumberName":"U-component_of_WINDS"},"data":[0,0,0,0,0,0,0,0,0,0,0,0,0,0,0,0,0,0,0,0,0,0,0,0,0,0,0,0,0,0,0,0,0,0,0,0,0,0,0,0,0,0,0,0,0,0,0,0,0,0,0,0,0,0,0,0,0,0,-0.2129,-0.2128,0,-0.2088,-0.2088,-0.2087,-0.2084,-0.2085,-0.2085,-0.2086,-0.2043,-0.2042,-0.204,0,0,0,0,0,0,0,0,0,0,0,0,0,-0.2204,-0.2202,-0.2129,-0.2128,-0.2128,-0.2088,-0.2088,-0.2087,-0.2084,-0.2085,-0.2086,-0.2086,-0.2044,-0.2042,-0.204,0,0,0,0,0,0,0,0,0,0,0,0,0,-0.2168,-0.2202,-0.2129,-0.2122,-0.2121,-0.2088,-0.2088,-0.2087,-0.2084,-0.2085,-0.2086,-0.2086,-0.2044,-0.2042,-0.204,-0.2012,0,0,-0.2033,-0.2032,0,0,0,0,0,0,0,0,-0.217,-0.2165,-0.2123,-0.2122,-0.2121,-0.2092,-0.2099,-0.2062,-0.2084,-0.2098,-0.2086,-0.2087,-0.2059,-0.2055,-0.2046,-0.201,-0.2008,-0.2032,-0.2031,-0.203,-0.2029,0,0,0,0,0,0,0,-0.2173,-0.2167,-0.2113,-0.2123,-0.2121,-0.212,-0.2116,-0.2092,-0.2075,-0.2097,-0.2097,-0.2092,-0.2058,-0.2049,-0.2045,-0.2007,-0.2032,-0.203,-0.2029,-0.2028,-0.1947,-0.1947,0,0,0,0,0,0,-0.2176,-0.2169,-0.2114,-0.2111,-0.2148,-0.2119,-0.2114,-0.2101,-0.2075,-0.2072,-0.2091,-0.2092,-0.2052,-0.2048,-0.2044,-0.201,-0.203,-0.2028,-0.2026,-0.1948,-0.1947,-0.1946,0,0,0,0,0,0,-0.2178,-0.2172,-0.2116,-0.214,-0.2133,-0.2117,-0.2102,-0.2099,-0.209,-0.2071,-0.2068,-0.2084,-0.2053,-0.2047,-0.202,-0.2008,-0.2027,-0.2025,-0.1949,-0.1948,-0.1947,-0.1942,0,0,0,0,0,0,-0.218,-0.2172,-0.2161,-0.214,-0.2132,-0.2093,-0.2101,-0.2098,-0.2086,-0.2086,-0.2064,-0.2061,-0.2053,-0.2024,-0.2018,-0.2006,-0.2023,-0.195,-0.1948,-0.1947,-0.1943,-0.1941,-0.1939,0,0,0,0,0,-0.2183,-0.2161,-0.2161,-0.2154,-0.2118,-0.2092,-0.2087,-0.2079,-0.2085,-0.2074,-0.2062,-0.2061,-0.2011,-0.2021,-0.2014,-0.2001,-0.1951,-0.1949,-0.1947,-0.1944,-0.1941,-0.1939,0,0,0,0,0,0,-0.218,-0.2158,-0.2157,-0.2128,-0.2112,-0.2091,-0.2077,-0.2076,-0.2057,-0.2058,-0.2048,-0.2043,-0.2017,-0.2006,-0.2018,-0.1974,-0.1981,-0.1978,-0.1981,-0.1978,-0.1976,-0.1979,-0.2021,0,0,0,0,0,-0.2176,-0.2157,-0.2139,-0.2115,-0.2107,-0.2094,-0.2082,-0.2077,-0.206,-0.2053,-0.2039,-0.2023,-0.2003,-0.199,-0.1971,-0.1942,-0.1937,-0.193,-0.1928,-0.1926,-0.1923,-0.1908,-0.1905,-0.1941,-0.1941,-0.1941,0,0,-0.2168,-0.2153,-0.2142,-0.2114,-0.2101,-0.2082,-0.2088,-0.2067,-0.2052,-0.205,-0.2024,-0.2013,-0.1994,-0.1966,-0.1953,-0.1957,-0.1913,-0.1924,-0.1923,-0.1921,-0.1906,-0.1903,-0.19,-0.194,-0.194,-0.194,0,0,-0.2142,-0.2129,-0.2108,-0.2096,-0.2076,-0.2068,-0.2063,-0.2043,-0.2036,-0.201,-0.2008,-0.1991,-0.1957,-0.1944,-0.1933,-0.1905,-0.1904,-0.1899,-0.1888,-0.1873,-0.187,-0.1867,-0.1858,-0.1854,-0.1896,-0.1896,-0.1896,0,-0.2134,-0.2105,-0.2097,-0.2077,-0.2065,-0.2063,-0.2041,-0.2029,-0.2005,-0.1997,-0.2001,-0.196,-0.1947,-0.1916,-0.1909,-0.19,-0.1895,-0.1901,-0.1871,-0.1868,-0.1866,-0.1857,-0.1853,-0.1896,-0.1896,-0.1896,-0.1896,0,-0.2096,-0.2076,-0.2061,-0.2038,-0.2025,-0.2004,-0.1994,-0.1981,-0.1978,-0.1969,-0.1943,-0.1928,-0.1906,-0.1899,-0.1895,-0.1868,-0.1871,-0.1873,-0.1881,-0.1862,-0.1853,-0.185,-0.1895,-0.1896,-0.1896,-0.1896,0,0,-0.2066,-0.2041,-0.2036,-0.2026,-0.2005,-0.199,-0.1969,-0.1949,-0.1938,-0.1922,-0.1905,-0.1877,-0.188,-0.1867,-0.1862,-0.1849,-0.1829,-0.1854,-0.1853,-0.185,-0.1799,-0.1797,-0.1793,-0.1828,-0.1828,-0.1827,-0.1801,0,-0.2039,-0.2002,-0.1996,-0.1964,-0.1946,-0.1945,-0.1927,-0.1913,-0.1904,-0.1888,-0.1879,-0.186,-0.1865,-0.1857,-0.1845,-0.1834,-0.1818,-0.1836,-0.1812,-0.1811,-0.1817,-0.1788,-0.1786,-0.1761,-0.1797,-0.1796,-0.1796,0,-0.2001,-0.1985,-0.1952,-0.1935,-0.1927,-0.1911,-0.1893,-0.1877,-0.1861,-0.1856,-0.1843,-0.184,-0.1819,-0.1828,-0.18,-0.1812,-0.1802,-0.1796,-0.1795,-0.1792,-0.1802,-0.1784,-0.1753,-0.175,-0.179,-0.1791,-0.1791,0,-0.1983,-0.1953,-0.1929,-0.1921,-0.1901,-0.189,-0.1881,-0.1866,-0.1854,-0.1838,-0.1831,-0.1812,-0.1802,-0.1788,-0.178,-0.1787,-0.1752,-0.1761,-0.1747,-0.1748,-0.1739,-0.174,-0.1706,-0.1734,-0.1734,-0.1734,-0.1734,0,-0.1953,-0.1933,-0.1921,-0.1907,-0.1884,-0.1877,-0.1856,-0.1847,-0.1834,-0.1818,-0.1815,-0.18,-0.1791,-0.1775,-0.1769,-0.1747,-0.1742,-0.1737,-0.1736,-0.1737,-0.1738,-0.173,-0.1732,-0.1733,-0.1733,-0.1733,-0.1733,0,-0.1929,-0.192,-0.1895,-0.1878,-0.1873,-0.1858,-0.1844,-0.183,-0.1822,-0.1802,-0.1797,-0.1785,-0.1766,-0.1757,-0.1733,-0.1729,-0.1704,-0.1704,-0.171,-0.1709,-0.1697,-0.1698,-0.1656,-0.1651,-0.1682,-0.1682,-0.1682,0,-0.191,-0.1895,-0.1877,-0.1866,-0.1857,-0.184,-0.1828,-0.1821,-0.181,-0.1792,-0.178,-0.1761,-0.1746,-0.1716,-0.1705,-0.1687,-0.1686,-0.1673,-0.1683,-0.1686,-0.1686,-0.1687,-0.1686,-0.1671,-0.1671,-0.167,-0.167,0,-0.1877,-0.1874,-0.1858,-0.1841,-0.1828,-0.1813,-0.18,-0.1791,-0.1782,-0.1769,-0.175,-0.1738,-0.1715,-0.1696,-0.1678,-0.1669,-0.1668,-0.1667,-0.1663,-0.1664,-0.1669,-0.1666,-0.1704,-0.1668,-0.1668,-0.1668,-0.1668,-0.1669,-0.1855,-0.1842,-0.1828,-0.181,-0.1799,-0.1787,-0.1773,-0.1765,-0.1749,-0.1729,-0.1726,-0.1706,-0.1692,-0.1668,-0.1658,-0.1643,-0.1646,-0.164,-0.1638,-0.1637,-0.1636,-0.1672,-0.1639,-0.1639,-0.1639,-0.1639,-0.1639,0,-0.1823,-0.1814,-0.1798,-0.1779,-0.1766,-0.1767,-0.1752,-0.1741,-0.1723,-0.171,-0.1695,-0.1674,-0.1657,-0.1645,-0.1628,-0.1617,-0.1617,-0.1613,-0.1613,-0.1612,-0.1634,-0.164,-0.1614,-0.1614,-0.1614,-0.1614,-0.1614,-0.1614,-0.1805,-0.1782,-0.1778,-0.175,-0.1742,-0.1722,-0.1714,-0.1703,-0.1692,-0.1669,-0.1655,-0.1648,-0.1635,-0.1617,-0.1601,-0.1598,-0.1592,-0.1588,-0.1586,-0.1607,-0.161,-0.1612,-0.1617,-0.1587,-0.1587,-0.1564,-0.1564,-0.1564]},{"header":{"parameterUnit":"m.s-1","parameterCategory":1,"la1":30.2991,"la2":30.254,"lo1":-89.0895,"lo2":-89.0444,"dy":0.0017,"dx":0.0017,"nx":28,"ny":28,"refTime":"2023-08-27T21:00:00:Z","depth":0,"parameterNumber":3,"parameterNumberName":"V-component_of_WINDS"},"data":[0,0,0,0,0,0,0,0,0,0,0,0,0,0,0,0,0,0,0,0,0,0,0,0,0,0,0,0,0,0,0,0,0,0,0,0,0,0,0,0,0,0,0,0,0,0,0,0,0,0,0,0,0,0,0,0,0,0,3.0274,3.0274,0,3.0228,3.0228,3.0227,3.0173,3.0172,3.0171,3.017,3.0123,3.0122,3.0122,0,0,0,0,0,0,0,0,0,0,0,0,0,3.0315,3.0315,3.0275,3.0274,3.0273,3.0228,3.0228,3.0227,3.0173,3.0172,3.0171,3.017,3.0123,3.0122,3.0122,0,0,0,0,0,0,0,0,0,0,0,0,0,3.0286,3.0315,3.0275,3.0241,3.0238,3.0229,3.0228,3.0227,3.0173,3.0172,3.0171,3.017,3.0123,3.0122,3.0122,3.0142,0,0,3.0119,3.0119,0,0,0,0,0,0,0,0,3.0288,3.0285,3.0247,3.0243,3.0239,3.0205,3.0225,3.0198,3.0174,3.0198,3.017,3.0169,3.0151,3.0148,3.0142,3.014,3.0138,3.0119,3.0119,3.0119,3.0118,0,0,0,0,0,0,0,3.029,3.0286,3.0256,3.0246,3.0242,3.0228,3.0222,3.0219,3.0182,3.0195,3.0191,3.0187,3.0149,3.0143,3.0141,3.0137,3.0119,3.0119,3.0118,3.0118,3.0149,3.015,0,0,0,0,0,0,3.0297,3.0288,3.0258,3.0255,3.0261,3.0228,3.0222,3.0217,3.0182,3.0175,3.0188,3.0184,3.0145,3.0141,3.0139,3.016,3.0119,3.0118,3.0117,3.0147,3.0149,3.015,0,0,0,0,0,0,3.0298,3.0295,3.026,3.027,3.0265,3.0229,3.0224,3.0217,3.0211,3.0176,3.0169,3.0189,3.0144,3.014,3.0142,3.0158,3.0118,3.0117,3.0146,3.0148,3.015,3.0204,0,0,0,0,0,0,3.03,3.0296,3.0303,3.0271,3.0265,3.0264,3.0225,3.0217,3.021,3.0205,3.0175,3.0169,3.0142,3.0143,3.0141,3.0156,3.0116,3.0144,3.0147,3.0149,3.02,3.0207,3.0213,0,0,0,0,0,3.0301,3.032,3.0304,3.03,3.0273,3.0265,3.0261,3.023,3.0212,3.0219,3.0196,3.017,3.0156,3.0144,3.0141,3.0156,3.0143,3.0146,3.0149,3.0197,3.0206,3.0213,0,0,0,0,0,0,3.0355,3.0315,3.0297,3.0306,3.0289,3.0256,3.0264,3.024,3.0228,3.0224,3.0187,3.018,3.0187,3.0171,3.0158,3.0174,3.0146,3.0148,3.0184,3.0191,3.0198,3.0202,3.0116,0,0,0,0,0,3.0368,3.0364,3.033,3.0341,3.0334,3.03,3.0295,3.0273,3.0254,3.0247,3.0224,3.0207,3.0198,3.0194,3.0184,3.0197,3.019,3.0206,3.0213,3.0218,3.0221,3.0227,3.0234,3.016,3.016,3.016,0,0,3.0395,3.0372,3.0373,3.0351,3.0336,3.0333,3.0295,3.0293,3.0291,3.0246,3.0247,3.023,3.0208,3.0215,3.0218,3.0203,3.024,3.0222,3.0226,3.0226,3.0231,3.0238,3.0244,3.0162,3.0161,3.0161,0,0,3.0442,3.0425,3.0432,3.0418,3.0394,3.0372,3.0374,3.0344,3.0331,3.0331,3.0297,3.0293,3.028,3.0266,3.0257,3.0298,3.0273,3.0296,3.033,3.0336,3.0342,3.0347,3.0362,3.0368,3.0299,3.0299,3.0299,0,3.0478,3.0473,3.0439,3.044,3.0432,3.0391,3.0399,3.0386,3.0361,3.0356,3.0339,3.0322,3.0304,3.0308,3.0318,3.0312,3.0313,3.03,3.0344,3.0348,3.0352,3.0367,3.0372,3.0302,3.0301,3.0301,3.0301,0,3.0518,3.0515,3.0524,3.0501,3.0493,3.0498,3.0465,3.0461,3.0439,3.0419,3.0419,3.0396,3.0381,3.038,3.0359,3.0381,3.0373,3.0351,3.0322,3.0363,3.0376,3.0381,3.0306,3.0305,3.0304,3.0303,0,0,3.0599,3.0557,3.0561,3.055,3.0521,3.0518,3.052,3.0506,3.0504,3.0487,3.0488,3.0478,3.0457,3.0447,3.0423,3.0429,3.0463,3.0405,3.0404,3.0418,3.0487,3.0504,3.0511,3.0446,3.0447,3.0448,3.0489,0,3.0642,3.0643,3.0613,3.0623,3.0619,3.0581,3.0583,3.0565,3.0546,3.054,3.0518,3.0511,3.0484,3.0478,3.0481,3.0459,3.0477,3.0455,3.0447,3.0447,3.0455,3.0518,3.0536,3.0576,3.0493,3.0494,3.0495,0,3.0692,3.0679,3.0688,3.0659,3.0656,3.0659,3.0643,3.0638,3.0617,3.0602,3.0591,3.0564,3.0564,3.0536,3.0535,3.0521,3.0516,3.0504,3.0505,3.0504,3.0474,3.0519,3.0588,3.0594,3.0502,3.0502,3.0501,0,3.0751,3.0735,3.0739,3.0731,3.0696,3.0699,3.0685,3.0663,3.0656,3.0642,3.0637,3.0623,3.0616,3.0606,3.0576,3.0559,3.0579,3.0549,3.0567,3.0568,3.0574,3.0574,3.0644,3.0569,3.0569,3.0569,3.0569,0,3.0802,3.081,3.0765,3.0767,3.0775,3.0739,3.0748,3.0729,3.071,3.0708,3.0674,3.0673,3.0633,3.0627,3.0604,3.0607,3.0604,3.0592,3.0586,3.0596,3.0597,3.0593,3.0589,3.0571,3.057,3.057,3.057,0,3.0869,3.084,3.0841,3.0809,3.0801,3.0807,3.0779,3.078,3.0758,3.0756,3.0754,3.072,3.0711,3.068,3.0664,3.0648,3.0659,3.0647,3.0667,3.0663,3.0683,3.0682,3.0753,3.0761,3.0681,3.0682,3.0682,0,3.0904,3.0909,3.0877,3.0873,3.0861,3.0855,3.0848,3.0814,3.0808,3.0784,3.0788,3.0777,3.0766,3.0754,3.0728,3.0716,3.0703,3.0729,3.0701,3.0711,3.0704,3.0705,3.0705,3.0735,3.0736,3.0737,3.0738,0,3.097,3.0955,3.0946,3.0933,3.0925,3.0913,3.0898,3.0897,3.0858,3.0853,3.0844,3.0836,3.082,3.0809,3.0792,3.0777,3.0752,3.0746,3.075,3.0761,3.0772,3.0767,3.0684,3.0745,3.0744,3.0744,3.0743,3.0743,3.1023,3.1025,3.1003,3.0995,3.098,3.0967,3.0966,3.0944,3.0936,3.0921,3.09,3.0894,3.0873,3.0847,3.0834,3.0829,3.0814,3.082,3.0821,3.0823,3.0828,3.0773,3.0826,3.0825,3.0825,3.0825,3.0825,0,3.1087,3.1071,3.1063,3.1044,3.1037,3.1013,3.0995,3.0991,3.0986,3.0969,3.0959,3.0949,3.0938,3.0911,3.0898,3.0899,3.0887,3.0897,3.0897,3.0894,3.0842,3.084,3.0907,3.0907,3.0907,3.0907,3.0907,3.0907,3.112,3.1124,3.1106,3.1102,3.1085,3.1079,3.1071,3.1059,3.1045,3.1035,3.1026,3.1008,3.0987,3.0972,3.0961,3.0953,3.095,3.0964,3.0953,3.0905,3.0897,3.089,3.0888,3.0964,3.0964,3.1005,3.1006,3.1006]}]]